This is the latest recevied weather packets stored in our database for station/object OE3MHU-13. If no packets are shown the sender has not sent any weather packets the latest 10 day(s).
| Time | Temp. | Humidity | Pressure | Rain* | Wind** | Luminosity | Snow |
|---|---|---|---|---|---|---|---|
| 1787564902 | 25.56° C | 48% | 1023.3 hPa | 0 mm | - | - | - |
| 1787564599 | 25° C | 48% | 1023.3 hPa | 0 mm | - | - | - |
| 1787564299 | 24.44° C | 50% | 1023.4 hPa | 0 mm | - | - | - |
| 1787563999 | 23.89° C | 50% | 1023.4 hPa | 0 mm | - | - | - |
| 1787563702 | 23.33° C | 52% | 1023.6 hPa | 0 mm | - | - | - |
| 1787563399 | 22.78° C | 54% | 1023.4 hPa | 0 mm | - | - | - |
| 1787563100 | 22.22° C | 55% | 1023.5 hPa | 0 mm | - | - | - |
| 1787562795 | 22.22° C | 52% | 1023.6 hPa | 0 mm | - | - | - |
| 1787562495 | 22.22° C | 54% | 1023.5 hPa | 0 mm | - | - | - |
| 1787562195 | 21.67° C | 56% | 1023.5 hPa | 0 mm | - | - | - |
| 1787561897 | 21.67° C | 54% | 1023.7 hPa | 0 mm | - | - | - |
| 1787561595 | 21.11° C | 56% | 1023.7 hPa | 0 mm | - | - | - |
| 1787561295 | 20.56° C | 57% | 1023.7 hPa | 0 mm | - | - | - |
| 1787560998 | 21.11° C | 56% | 1023.8 hPa | 0 mm | - | - | - |
| 1787560694 | 21.11° C | 58% | 1023.8 hPa | 0 mm | - | - | - |
| 1787560395 | 21.11° C | 57% | 1023.7 hPa | 0 mm | - | - | - |
| 1787560095 | 20.56° C | 58% | 1023.8 hPa | 0 mm | - | - | - |
| 1787559795 | 21.11° C | 58% | 1023.7 hPa | 0 mm | - | - | - |
| 1787559495 | 20.56° C | 58% | 1023.7 hPa | 0 mm | - | - | - |
| 1787559195 | 20.56° C | 59% | 1023.8 hPa | 0 mm | - | - | - |
| 1787558894 | 20° C | 61% | 1023.8 hPa | 0 mm | - | - | - |
| 1787558596 | 20° C | 60% | 1023.7 hPa | 0 mm | - | - | - |
| 1787558296 | 20° C | 61% | 1023.7 hPa | 0 mm | - | - | - |
| 1787557995 | 19.44° C | 61% | 1023.7 hPa | 0 mm | - | - | - |
| 1787557695 | 19.44° C | 62% | 1023.7 hPa | 0 mm | - | - | - |
* Rain latest hour (hover to see other rain measurements)
** Current wind speed in m/s (hover to see current wind gust speed)